Total_Precipitation_Accumulation
0.00 0.00 0.00 0.00 0.00 0.00 0.00 0.02 0.02 0.00 0.00 0.00 0.00 0.00 0.00 0.00 0.00 0.00 0.00 0.03 0.00 0.01 0.00 0.00 0.00 0.00 0.02 0.01 0.00 0.03 0.02 0.09 0.03 0.02 0.09 0.15 0.46 0.17 0.20 0.17 0.29 0.20 0.31 0.33 0.40 0.60 0.42 0.50 0.42 0.64 0.90 0.79 0.88 0.91 0.48 0.53 0.32 0.18 0.16 0.19 0.27 0.19 0.17 0.29 0.28 0.20 0.11 0.09 0.06 0.07 0.04 0.04 0.05 0.03 0.02 0.02 0.04 0.03 0.03 0.01 0.02 0.02 0.01 0.00 0.01 0.01 0.01 0.01 0.01 0.01 0.00 0.01 0.00 0.01 0.02 0.02 0.02
0.00 0.00 0.00 0.00 0.00 0.00 0.06 0.00 0.03 0.00 0.00 0.00 0.00 0.00 0.00 0.00 0.01 0.00 0.00 0.00 0.00 0.00 0.00 0.00 0.00 0.00 0.00 0.00 0.00 0.00 0.02 0.02 0.02 0.02 0.10 0.14 0.19 0.20 0.25 0.20 0.13 0.21 0.06 0.14 0.22 0.41 0.35 0.45 0.47 0.60 0.73 0.93 0.73 0.51 0.40 0.39 0.30 0.21 0.26 0.14 0.19 0.24 0.28 0.12 0.14 0.15 0.12 0.05 0.07 0.03 0.02 0.05 0.02 0.04 0.02 0.00 0.00 0.02 0.02 0.01 0.00 0.01 0.01 0.01 0.01 0.00 0.01 0.01 0.00 0.01 0.01 0.02 0.03 0.01 0.03 0.02 0.02
0.00 0.00 0.00 0.01 0.02 0.01 0.02 0.01 0.01 0.01 0.00 0.00 0.00 0.00 0.00 0.00 0.00 0.00 0.00 0.00 0.00 0.00 0.00 0.00 0.00 0.00 0.00 0.00 0.01 0.01 0.08 0.08 0.02 0.05 0.10 0.10 0.13 0.30 0.19 0.29 0.07 0.07 0.08 0.10 0.17 0.17 0.31 0.35 0.26 0.79 0.83 0.64 0.43 0.41 0.42 0.25 0.15 0.17 0.19 0.11 0.12 0.15 0.14 0.06 0.08 0.10 0.07 0.03 0.03 0.05 0.03 0.04 0.04 0.02 0.02 0.02 0.02 0.03 0.03 0.03 0.02 0.02 0.01 0.02 0.01 0.03 0.03 0.00 0.02 0.02 0.02 0.02 0.02 0.03 0.03 0.04 0.03
0.00 0.00 0.00 0.01 0.13 0.02 0.02 0.01 0.00 0.00 0.00 0.00 0.00 0.00 0.00 0.00 0.00 0.00 0.00 0.00 0.00 0.00 0.00 0.00 0.00 0.00 0.00 0.00 0.00 0.00 0.03 0.06 0.02 0.01 0.14 0.27 0.12 0.08 0.07 0.11 0.09 0.04 0.08 0.11 0.12 0.24 0.39 0.22 0.28 0.70 0.67 0.63 0.39 0.30 0.24 0.20 0.14 0.13 0.12 0.10 0.09 0.14 0.10 0.05 0.05 0.04 0.04 0.01 0.03 0.04 0.02 0.03 0.02 0.02 0.03 0.01 0.05 0.04 0.02 0.02 0.01 0.03 0.03 0.01 0.03 0.01 0.01 0.01 0.02 0.00 0.01 0.02 0.02 0.03 0.03 0.02 0.02
0.00 0.00 0.01 0.01 0.06 0.03 0.04 0.00 0.00 0.00 0.00 0.00 0.00 0.00 0.00 0.00 0.00 0.00 0.00 0.00 0.00 0.00 0.00 0.00 0.00 0.00 0.00 0.00 0.00 0.01 0.03 0.06 0.07 0.03 0.10 0.09 0.05 0.11 0.12 0.07 0.11 0.11 0.11 0.15 0.15 0.19 0.35 0.19 0.29 0.57 0.55 0.43 0.31 0.28 0.33 0.21 0.16 0.13 0.07 0.05 0.06 0.07 0.07 0.06 0.06 0.05 0.02 0.02 0.02 0.05 0.03 0.04 0.05 0.03 0.03 0.06 0.05 0.02 0.02 0.03 0.01 0.02 0.02 0.03 0.02 0.02 0.02 0.02 0.01 0.02 0.02 0.01 0.02 0.02 0.02 0.02 0.01
0.00 0.00 0.00 0.02 0.03 0.00 0.00 0.01 0.00 0.00 0.00 0.00 0.00 0.00 0.00 0.00 0.00 0.00 0.00 0.00 0.00 0.00 0.00 0.00 0.00 0.00 0.00 0.00 0.00 0.02 0.02 0.08 0.02 0.02 0.01 0.09 0.06 0.02 0.06 0.05 0.08 0.08 0.06 0.11 0.09 0.12 0.24 0.19 0.19 0.18 0.35 0.35 0.21 0.20 0.17 0.15 0.14 0.09 0.05 0.06 0.03 0.09 0.04 0.04 0.05 0.05 0.02 0.02 0.02 0.02 0.03 0.04 0.03 0.03 0.03 0.03 0.04 0.02 0.02 0.02 0.01 0.01 0.01 0.01 0.04 0.02 0.03 0.02 0.01 0.00 0.01 0.02 0.02 0.03 0.01 0.01 0.00
0.01 0.00 0.00 0.01 0.01 0.04 0.02 0.00 0.00 0.00 0.00 0.00 0.00 0.00 0.00 0.00 0.00 0.00 0.00 0.00 0.00 0.00 0.00 0.00 0.00 0.00 0.00 0.00 0.00 0.02 0.01 0.00 0.00 0.01 0.01 0.02 0.04 0.03 0.04 0.04 0.03 0.06 0.07 0.06 0.09 0.16 0.26 0.18 0.20 0.41 0.30 0.24 0.22 0.30 0.26 0.12 0.06 0.09 0.07 0.07 0.05 0.08 0.05 0.05 0.03 0.05 0.03 0.02 0.02 0.03 0.03 0.02 0.04 0.02 0.02 0.02 0.02 0.03 0.00 0.00 0.01 0.01 0.01 0.01 0.03 0.03 0.03 0.03 0.01 0.02 0.02 0.01 0.01 0.00 0.01 0.02 0.02
0.00 0.01 0.00 0.04 0.03 0.03 0.00 0.00 0.00 0.00 0.00 0.00 0.00 0.00 0.00 0.00 0.00 0.00 0.00 0.00 0.00 0.00 0.00 0.00 0.00 0.00 0.01 0.01 0.09 0.13 0.01 0.00 0.00 0.00 0.01 0.01 0.01 0.03 0.04 0.03 0.03 0.06 0.05 0.06 0.07 0.17 0.23 0.19 0.18 0.15 0.25 0.17 0.19 0.16 0.19 0.12 0.08 0.10 0.06 0.07 0.04 0.09 0.07 0.08 0.05 0.05 0.04 0.04 0.04 0.03 0.01 0.02 0.04 0.02 0.02 0.02 0.01 0.01 0.01 0.02 0.01 0.02 0.01 0.02 0.04 0.06 0.06 0.01 0.01 0.01 0.02 0.01 0.02 0.00 0.01 0.03 0.01
0.00 0.00 0.00 0.01 0.00 0.00 0.00 0.00 0.00 0.00 0.00 0.00 0.00 0.00 0.00 0.00 0.00 0.00 0.00 0.00 0.00 0.00 0.00 0.00 0.00 0.01 0.04 0.00 0.04 0.05 0.01 0.00 0.00 0.00 0.01 0.02 0.03 0.01 0.01 0.02 0.03 0.05 0.06 0.05 0.09 0.11 0.15 0.22 0.25 0.12 0.16 0.17 0.09 0.14 0.09 0.10 0.06 0.09 0.09 0.07 0.06 0.05 0.07 0.06 0.05 0.04 0.03 0.04 0.02 0.03 0.03 0.03 0.04 0.02 0.02 0.01 0.02 0.01 0.01 0.00 0.02 0.02 0.02 0.03 0.03 0.02 0.02 0.01 0.01 0.01 0.01 0.00 0.00 0.00 0.01 0.02 0.03
0.02 0.00 0.01 0.00 0.03 0.06 0.07 0.00 0.00 0.00 0.00 0.00 0.00 0.00 0.00 0.00 0.00 0.00 0.00 0.00 0.00 0.00 0.00 0.00 0.00 0.00 0.00 0.01 0.05 0.03 0.03 0.01 0.00 0.01 0.01 0.02 0.01 0.01 0.02 0.02 0.02 0.02 0.02 0.05 0.08 0.12 0.11 0.19 0.12 0.13 0.16 0.06 0.10 0.17 0.09 0.09 0.04 0.05 0.05 0.04 0.07 0.04 0.04 0.04 0.05 0.04 0.04 0.01 0.03 0.01 0.01 0.01 0.02 0.02 0.01 0.01 0.00 0.00 0.00 0.01 0.01 0.01 0.02 0.01 0.02 0.01 0.07 0.04 0.05 0.03 0.02 0.00 0.01 0.01 0.01 0.01 0.02
0.02 0.00 0.00 0.02 0.01 0.02 0.01 0.00 0.00 0.00 0.00 0.00 0.00 0.00 0.00 0.00 0.00 0.00 0.00 0.00 0.00 0.00 0.00 0.00 0.00 0.00 0.00 0.03 0.05 0.03 0.02 0.02 0.01 0.02 0.01 0.03 0.02 0.01 0.02 0.02 0.03 0.00 0.01 0.05 0.08 0.10 0.10 0.11 0.08 0.06 0.09 0.04 0.08 0.09 0.10 0.03 0.03 0.03 0.03 0.05 0.05 0.04 0.05 0.04 0.05 0.02 0.03 0.03 0.01 0.00 0.01 0.01 0.00 0.00 0.00 0.00 0.00 0.00 0.00 0.00 0.01 0.01 0.01 0.01 0.06 0.06 0.03 0.09 0.06 0.03 0.05 0.03 0.00 0.00 0.02 0.01 0.02
0.03 0.00 0.00 0.00 0.02 0.08 0.02 0.03 0.00 0.00 0.00 0.00 0.00 0.00 0.00 0.00 0.00 0.00 0.00 0.00 0.00 0.00 0.00 0.00 0.00 0.00 0.00 0.01 0.08 0.11 0.01 0.02 0.02 0.01 0.01 0.01 0.02 0.01 0.02 0.03 0.01 0.01 0.01 0.02 0.04 0.07 0.06 0.09 0.11 0.18 0.06 0.06 0.05 0.04 0.05 0.04 0.03 0.01 0.03 0.02 0.03 0.04 0.04 0.03 0.04 0.03 0.07 0.02 0.03 0.01 0.01 0.00 0.01 0.00 0.00 0.00 0.00 0.00 0.00 0.01 0.00 0.00 0.01 0.04 0.08 0.11 0.06 0.11 0.06 0.07 0.05 0.10 0.06 0.03 0.03 0.02 0.02
0.02 0.00 0.04 0.03 0.01 0.03 0.05 0.06 0.01 0.00 0.00 0.00 0.00 0.00 0.00 0.00 0.00 0.00 0.00 0.00 0.00 0.00 0.00 0.00 0.00 0.00 0.00 0.01 0.10 0.04 0.03 0.01 0.00 0.00 0.01 0.01 0.02 0.02 0.02 0.02 0.03 0.01 0.01 0.01 0.04 0.04 0.06 0.07 0.08 0.14 0.06 0.11 0.09 0.06 0.04 0.03 0.04 0.02 0.02 0.04 0.03 0.04 0.05 0.04 0.01 0.02 0.03 0.02 0.04 0.03 0.02 0.02 0.01 0.00 0.00 0.00 0.00 0.01 0.02 0.00 0.00 0.00 0.06 0.10 0.17 0.21 0.21 0.14 0.13 0.17 0.23 0.09 0.09 0.04 0.13 0.03 0.03
0.01 0.00 0.00 0.00 0.03 0.01 0.01 0.01 0.04 0.04 0.00 0.00 0.00 0.00 0.00 0.00 0.00 0.00 0.00 0.00 0.00 0.00 0.00 0.00 0.00 0.00 0.01 0.01 0.18 0.05 0.01 0.01 0.00 0.00 0.00 0.01 0.01 0.02 0.02 0.04 0.04 0.03 0.02 0.02 0.02 0.03 0.06 0.05 0.06 0.08 0.09 0.12 0.13 0.09 0.06 0.04 0.01 0.02 0.02 0.02 0.03 0.02 0.01 0.00 0.02 0.01 0.01 0.02 0.01 0.02 0.01 0.01 0.00 0.00 0.01 0.01 0.01 0.02 0.00 0.00 0.01 0.03 0.06 0.11 0.23 0.22 0.17 0.19 0.24 0.33 0.28 0.18 0.18 0.12 0.14 0.07 0.13
0.00 0.00 0.01 0.02 0.00 0.00 0.02 0.08 0.03 0.01 0.00 0.00 0.00 0.00 0.00 0.00 0.00 0.00 0.00 0.00 0.00 0.00 0.00 0.00 0.00 0.00 0.00 0.00 0.03 0.00 0.01 0.01 0.00 0.01 0.01 0.00 0.01 0.03 0.04 0.03 0.04 0.02 0.03 0.03 0.06 0.07 0.04 0.05 0.03 0.06 0.08 0.07 0.06 0.11 0.17 0.07 0.04 0.04 0.02 0.02 0.02 0.01 0.03 0.02 0.01 0.01 0.01 0.00 0.01 0.01 0.00 0.00 0.00 0.00 0.01 0.02 0.01 0.00 0.00 0.00 0.00 0.03 0.06 0.06 0.13 0.19 0.27 0.28 0.38 0.36 0.53 0.22 0.27 0.25 0.23 0.20 0.16
0.00 0.00 0.00 0.00 0.00 0.00 0.00 0.02 0.00 0.00 0.00 0.00 0.00 0.00 0.00 0.00 0.00 0.00 0.00 0.01 0.00 0.00 0.00 0.00 0.00 0.00 0.00 0.00 0.00 0.00 0.00 0.00 0.01 0.00 0.00 0.01 0.02 0.04 0.06 0.04 0.04 0.04 0.03 0.04 0.09 0.08 0.04 0.04 0.07 0.09 0.09 0.05 0.05 0.06 0.07 0.10 0.04 0.05 0.04 0.04 0.02 0.04 0.02 0.02 0.02 0.02 0.03 0.02 0.03 0.03 0.02 0.02 0.01 0.01 0.03 0.02 0.01 0.02 0.00 0.00 0.00 0.04 0.15 0.12 0.15 0.18 0.18 0.27 0.36 0.34 0.42 0.50 0.49 0.26 0.30 0.34 0.43
0.00 0.00 0.00 0.00 0.00 0.00 0.00 0.00 0.02 0.03 0.00 0.00 0.00 0.00 0.00 0.00 0.00 0.00 0.00 0.00 0.00 0.00 0.00 0.00 0.00 0.00 0.00 0.00 0.00 0.00 0.00 0.00 0.01 0.00 0.01 0.03 0.04 0.09 0.10 0.07 0.05 0.05 0.05 0.06 0.08 0.08 0.05 0.09 0.05 0.12 0.08 0.04 0.11 0.06 0.07 0.08 0.05 0.08 0.07 0.06 0.05 0.05 0.06 0.03 0.03 0.05 0.02 0.02 0.02 0.01 0.03 0.03 0.03 0.03 0.05 0.04 0.02 0.03 0.00 0.00 0.01 0.03 0.18 0.30 0.54 0.42 0.31 0.49 0.35 0.52 0.69 0.79 0.51 0.33 0.44 0.65 0.65
0.00 0.00 0.00 0.00 0.00 0.00 0.00 0.00 0.00 0.00 0.00 0.00 0.00 0.00 0.00 0.00 0.00 0.00 0.00 0.00 0.00 0.00 0.00 0.00 0.00 0.00 0.00 0.00 0.00 0.00 0.00 0.00 0.01 0.00 0.01 0.04 0.03 0.05 0.05 0.06 0.05 0.08 0.05 0.11 0.10 0.07 0.08 0.15 0.06 0.08 0.09 0.08 0.08 0.06 0.05 0.04 0.12 0.12 0.10 0.06 0.03 0.05 0.02 0.05 0.03 0.04 0.03 0.02 0.03 0.02 0.02 0.04 0.12 0.12 0.12 0.04 0.01 0.04 0.03 0.05 0.07 0.09 0.19 0.40 0.50 0.65 0.47 0.29 0.40 0.49 0.59 0.65 0.56 0.45 0.58 0.72 0.80
0.00 0.00 0.00 0.00 0.00 0.00 0.00 0.00 0.00 0.00 0.00 0.00 0.00 0.00 0.00 0.00 0.00 0.00 0.02 0.00 0.00 0.00 0.00 0.00 0.00 0.00 0.00 0.00 0.00 0.00 0.00 0.02 0.01 0.00 0.01 0.01 0.02 0.01 0.05 0.03 0.03 0.04 0.06 0.05 0.11 0.07 0.05 0.07 0.06 0.05 0.06 0.06 0.08 0.09 0.10 0.11 0.06 0.07 0.10 0.06 0.04 0.03 0.03 0.02 0.04 0.04 0.06 0.04 0.20 0.11 0.10 0.08 0.04 0.11 0.11 0.11 0.04 0.03 0.03 0.04 0.10 0.10 0.19 0.40 0.38 0.62 0.83 0.72 0.48 0.53 0.69 0.71 0.58 0.55 0.24 0.37 0.45
0.00 0.00 0.00 0.00 0.00 0.00 0.00 0.00 0.00 0.00 0.00 0.00 0.00 0.00 0.00 0.00 0.00 0.00 0.01 0.01 0.00 0.02 0.02 0.00 0.00 0.01 0.00 0.00 0.00 0.00 0.01 0.01 0.00 0.00 0.00 0.01 0.01 0.01 0.01 0.02 0.02 0.02 0.03 0.06 0.02 0.06 0.04 0.06 0.05 0.06 0.04 0.06 0.08 0.08 0.09 0.33 0.08 0.06 0.07 0.08 0.05 0.04 0.07 0.05 0.11 0.09 0.14 0.04 0.15 0.07 0.10 0.05 0.11 0.19 0.06 0.04 0.06 0.03 0.05 0.09 0.09 0.17 0.14 0.18 0.17 0.43 0.45 0.62 0.56 0.32 0.39 0.47 0.38 0.38 0.29 0.20 0.03
0.00 0.00 0.00 0.00 0.00 0.00 0.00 0.00 0.00 0.00 0.00 0.00 0.00 0.00 0.00 0.00 0.00 0.00 0.00 0.00 0.00 0.00 0.00 0.00 0.00 0.00 0.00 0.00 0.00 0.01 0.01 0.02 0.02 0.01 0.00 0.01 0.01 0.02 0.00 0.01 0.02 0.01 0.01 0.03 0.05 0.07 0.05 0.03 0.04 0.03 0.05 0.09 0.06 0.03 0.03 0.12 0.05 0.05 0.07 0.18 0.13 0.07 0.05 0.08 0.05 0.18 0.13 0.18 0.13 0.13 0.11 0.10 0.19 0.08 0.09 0.13 0.03 0.04 0.11 0.05 0.20 0.23 0.16 0.23 0.03 0.19 0.35 0.22 0.32 0.26 0.05 0.08 0.14 0.24 0.31 0.12 0.17
0.00 0.00 0.00 0.00 0.00 0.00 0.00 0.00 0.00 0.00 0.00 0.00 0.00 0.00 0.00 0.00 0.00 0.00 0.04 0.11 0.00 0.00 0.00 0.00 0.00 0.00 0.00 0.00 0.00 0.00 0.00 0.01 0.01 0.01 0.00 0.00 0.00 0.01 0.00 0.01 0.00 0.01 0.02 0.02 0.02 0.10 0.03 0.02 0.02 0.09 0.04 0.06 0.05 0.03 0.03 0.02 0.04 0.06 0.07 0.09 0.04 0.05 0.07 0.06 0.18 0.11 0.16 0.15 0.18 0.07 0.05 0.11 0.10 0.05 0.07 0.10 0.03 0.05 0.13 0.10 0.09 0.26 0.12 0.06 0.16 0.17 0.24 0.27 0.22 0.14 0.06 0.08 0.04 0.16 0.17 0.20 0.17
0.00 0.00 0.00 0.00 0.00 0.00 0.00 0.00 0.00 0.00 0.00 0.00 0.00 0.00 0.00 0.00 0.00 0.00 0.00 0.15 0.01 0.00 0.00 0.00 0.00 0.00 0.00 0.00 0.00 0.00 0.01 0.00 0.00 0.00 0.00 0.00 0.00 0.00 0.00 0.00 0.00 0.00 0.00 0.00 0.02 0.04 0.02 0.02 0.02 0.03 0.04 0.03 0.03 0.03 0.03 0.02 0.02 0.10 0.17 0.15 0.04 0.05 0.04 0.06 0.06 0.23 0.35 0.26 0.12 0.10 0.07 0.10 0.07 0.06 0.10 0.14 0.24 0.31 0.10 0.09 0.13 0.19 0.06 0.04 0.06 0.07 0.11 0.26 0.23 0.10 0.05 0.08 0.13 0.13 0.11 0.06 0.03
0.00 0.00 0.00 0.00 0.00 0.00 0.00 0.00 0.00 0.00 0.00 0.00 0.00 0.00 0.00 0.00 0.00 0.00 0.00 0.00 0.00 0.00 0.00 0.00 0.00 0.00 0.00 0.00 0.00 0.00 0.00 0.00 0.00 0.00 0.00 0.00 0.00 0.00 0.00 0.00 0.00 0.00 0.00 0.00 0.00 0.01 0.01 0.01 0.02 0.03 0.04 0.03 0.03 0.03 0.03 0.02 0.05 0.10 0.06 0.11 0.03 0.03 0.02 0.05 0.09 0.16 0.20 0.15 0.10 0.08 0.06 0.13 0.15 0.15 0.09 0.16 0.43 0.21 0.28 0.52 0.45 0.13 0.05 0.02 0.06 0.08 0.03 0.03 0.14 0.03 0.08 0.21 0.13 0.14 0.08 0.19 0.22
0.00 0.00 0.00 0.00 0.00 0.00 0.00 0.00 0.00 0.00 0.00 0.00 0.00 0.00 0.00 0.00 0.00 0.00 0.00 0.00 0.00 0.00 0.00 0.00 0.00 0.00 0.00 0.00 0.00 0.00 0.00 0.01 0.00 0.00 0.00 0.00 0.00 0.00 0.00 0.00 0.00 0.00 0.00 0.00 0.00 0.00 0.00 0.01 0.02 0.03 0.03 0.03 0.03 0.03 0.07 0.15 0.10 0.13 0.13 0.10 0.03 0.11 0.03 0.10 0.19 0.28 0.34 0.28 0.15 0.06 0.10 0.08 0.18 0.29 0.13 0.32 0.39 0.13 0.23 0.20 0.20 0.33 0.18 0.11 0.04 0.03 0.02 0.04 0.06 0.04 0.05 0.04 0.13 0.32 0.57 0.30 0.19
0.00 0.00 0.00 0.00 0.00 0.00 0.00 0.00 0.00 0.00 0.00 0.00 0.00 0.00 0.00 0.00 0.00 0.00 0.00 0.00 0.00 0.00 0.00 0.00 0.00 0.00 0.00 0.00 0.00 0.00 0.00 0.00 0.00 0.00 0.00 0.00 0.00 0.00 0.00 0.00 0.00 0.00 0.00 0.00 0.00 0.00 0.00 0.02 0.01 0.05 0.02 0.03 0.03 0.05 0.09 0.08 0.16 0.23 0.18 0.12 0.11 0.09 0.08 0.09 0.21 0.26 0.38 0.33 0.08 0.14 0.07 0.09 0.04 0.03 0.04 0.22 0.19 0.15 0.17 0.04 0.03 0.11 0.14 0.04 0.05 0.06 0.09 0.10 0.07 0.04 0.03 0.02 0.01 0.20 0.26 0.19 0.34
0.00 0.00 0.00 0.00 0.00 0.00 0.00 0.00 0.00 0.00 0.00 0.00 0.00 0.00 0.00 0.00 0.00 0.00 0.00 0.00 0.00 0.00 0.00 0.00 0.00 0.00 0.00 0.00 0.00 0.00 0.00 0.00 0.00 0.00 0.00 0.00 0.00 0.00 0.00 0.00 0.00 0.00 0.00 0.00 0.00 0.00 0.00 0.01 0.01 0.01 0.02 0.03 0.03 0.04 0.03 0.03 0.04 0.06 0.13 0.16 0.22 0.33 0.26 0.27 0.43 0.43 0.46 0.10 0.10 0.18 0.03 0.09 0.05 0.02 0.13 0.10 0.11 0.23 0.13 0.07 0.02 0.05 0.05 0.11 0.10 0.11 0.08 0.04 0.04 0.04 0.05 0.08 0.14 0.04 0.01 0.08 0.06
0.00 0.00 0.00 0.00 0.00 0.00 0.00 0.00 0.00 0.00 0.00 0.00 0.00 0.00 0.00 0.00 0.00 0.00 0.00 0.00 0.00 0.00 0.00 0.00 0.00 0.00 0.00 0.00 0.00 0.00 0.00 0.00 0.00 0.00 0.00 0.00 0.00 0.00 0.00 0.00 0.00 0.00 0.00 0.00 0.00 0.00 0.00 0.00 0.00 0.01 0.01 0.02 0.02 0.02 0.02 0.02 0.03 0.03 0.03 0.03 0.16 0.26 0.31 0.30 0.31 0.13 0.06 0.05 0.05 0.03 0.04 0.05 0.11 0.02 0.05 0.05 0.10 0.11 0.10 0.05 0.13 0.08 0.07 0.10 0.11 0.09 0.09 0.13 0.08 0.11 0.10 0.13 0.15 0.10 0.03 0.03 0.03
0.00 0.00 0.00 0.00 0.00 0.00 0.00 0.00 0.00 0.00 0.00 0.00 0.00 0.00 0.00 0.00 0.00 0.00 0.00 0.00 0.00 0.00 0.00 0.00 0.00 0.00 0.00 0.00 0.00 0.01 0.00 0.00 0.00 0.00 0.00 0.00 0.00 0.00 0.00 0.00 0.00 0.00 0.00 0.00 0.00 0.00 0.00 0.00 0.00 0.00 0.01 0.01 0.02 0.02 0.01 0.01 0.02 0.01 0.03 0.10 0.09 0.04 0.04 0.04 0.10 0.02 0.02 0.04 0.06 0.02 0.02 0.02 0.03 0.01 0.02 0.03 0.02 0.04 0.08 0.14 0.08 0.04 0.08 0.06 0.07 0.18 0.19 0.21 0.16 0.10 0.06 0.15 0.15 0.13 0.10 0.06 0.02
0.00 0.00 0.00 0.00 0.00 0.00 0.00 0.00 0.00 0.00 0.00 0.00 0.00 0.06 0.00 0.00 0.00 0.00 0.00 0.00 0.00 0.00 0.00 0.00 0.00 0.00 0.00 0.00 0.00 0.00 0.00 0.01 0.00 0.00 0.00 0.00 0.00 0.00 0.00 0.00 0.00 0.00 0.00 0.00 0.00 0.00 0.00 0.00 0.00 0.00 0.00 0.01 0.01 0.01 0.01 0.02 0.01 0.01 0.03 0.06 0.01 0.02 0.00 0.01 0.02 0.01 0.03 0.02 0.06 0.09 0.04 0.01 0.01 0.03 0.05 0.06 0.04 0.09 0.11 0.21 0.13 0.16 0.10 0.13 0.21 0.29 0.21 0.17 0.14 0.20 0.08 0.24 0.23 0.14 0.05 0.06 0.02
0.00 0.00 0.00 0.00 0.00 0.00 0.00 0.00 0.00 0.00 0.00 0.00 0.01 0.01 0.00 0.00 0.00 0.00 0.00 0.00 0.00 0.00 0.00 0.00 0.00 0.00 0.00 0.00 0.00 0.00 0.00 0.00 0.00 0.00 0.00 0.00 0.00 0.00 0.00 0.01 0.01 0.01 0.01 0.00 0.00 0.01 0.00 0.00 0.00 0.01 0.01 0.02 0.01 0.01 0.01 0.02 0.01 0.04 0.01 0.02 0.01 0.01 0.01 0.01 0.00 0.01 0.03 0.01 0.01 0.16 0.14 0.16 0.13 0.33 0.27 0.15 0.04 0.06 0.06 0.05 0.18 0.26 0.23 0.28 0.20 0.20 0.16 0.26 0.14 0.30 0.24 0.14 0.14 0.07 0.14 0.07 0.11
0.00 0.00 0.00 0.02 0.03 0.00 0.00 0.00 0.00 0.00 0.00 0.00 0.00 0.01 0.00 0.00 0.00 0.00 0.00 0.00 0.00 0.00 0.00 0.01 0.00 0.00 0.00 0.00 0.01 0.00 0.00 0.00 0.00 0.00 0.00 0.00 0.00 0.01 0.01 0.01 0.00 0.00 0.00 0.01 0.01 0.01 0.02 0.03 0.02 0.02 0.02 0.02 0.02 0.02 0.03 0.02 0.03 0.02 0.02 0.01 0.02 0.02 0.01 0.02 0.05 0.25 0.22 0.16 0.06 0.04 0.04 0.10 0.26 0.85 0.42 0.32 0.17 0.04 0.11 0.12 0.27 0.27 0.21 0.34 0.31 0.36 0.34 0.22 0.35 0.24 0.16 0.23 0.09 0.05 0.06 0.05 0.05
0.00 0.00 0.00 0.00 0.01 0.02 0.00 0.00 0.00 0.00 0.00 0.00 0.06 0.00 0.00 0.00 0.00 0.00 0.00 0.00 0.00 0.00 0.00 0.00 0.00 0.00 0.00 0.00 0.00 0.01 0.01 0.01 0.01 0.00 0.00 0.00 0.03 0.11 0.01 0.01 0.01 0.01 0.01 0.01 0.01 0.01 0.02 0.01 0.01 0.01 0.00 0.01 0.01 0.02 0.03 0.02 0.02 0.03 0.04 0.02 0.02 0.04 0.03 0.03 0.03 0.04 0.05 0.09 0.16 0.10 0.12 0.16 0.12 0.36 0.46 0.23 0.24 0.12 0.11 0.08 0.10 0.17 0.28 0.39 0.25 0.27 0.18 0.24 0.32 0.28 0.26 0.25 0.21 0.10 0.07 0.07 0.05
0.00 0.00 0.00 0.00 0.00 0.00 0.00 0.00 0.00 0.00 0.00 0.00 0.00 0.01 0.00 0.00 0.00 0.00 0.00 0.00 0.00 0.00 0.00 0.00 0.00 0.00 0.00 0.02 0.00 0.00 0.00 0.01 0.01 0.00 0.00 0.01 0.05 0.13 0.11 0.03 0.02 0.01 0.00 0.01 0.01 0.01 0.01 0.02 0.01 0.01 0.01 0.01 0.01 0.01 0.01 0.01 0.02 0.02 0.03 0.03 0.04 0.08 0.70 0.22 0.05 0.02 0.03 0.06 0.10 0.08 0.08 0.14 0.29 0.61 0.35 0.47 0.18 0.16 0.14 0.09 0.12 0.17 0.22 0.27 0.27 0.20 0.33 0.39 0.27 0.31 0.28 0.36 0.28 0.23 0.16 0.09 0.06
0.00 0.00 0.00 0.00 0.00 0.00 0.01 0.00 0.00 0.00 0.00 0.01 0.00 0.05 0.00 0.00 0.00 0.00 0.00 0.00 0.00 0.00 0.00 0.00 0.00 0.00 0.00 0.00 0.02 0.02 0.00 0.00 0.01 0.00 0.00 0.02 0.02 0.03 0.07 0.07 0.01 0.00 0.01 0.00 0.00 0.00 0.01 0.02 0.01 0.01 0.01 0.01 0.01 0.01 0.02 0.01 0.01 0.02 0.03 0.02 0.03 0.08 0.73 0.44 0.08 0.04 0.01 0.04 0.08 0.18 0.28 0.19 0.31 0.52 0.64 0.72 0.24 0.14 0.08 0.15 0.12 0.12 0.15 0.19 0.27 0.28 0.25 0.24 0.24 0.15 0.13 0.25 0.26 0.18 0.23 0.21 0.33
0.00 0.00 0.00 0.00 0.00 0.00 0.02 0.00 0.00 0.00 0.00 0.00 0.00 0.01 0.00 0.00 0.00 0.00 0.00 0.00 0.00 0.00 0.00 0.00 0.00 0.00 0.00 0.00 0.00 0.00 0.00 0.00 0.03 0.02 0.02 0.03 0.01 0.02 0.02 0.01 0.01 0.03 0.00 0.01 0.03 0.00 0.01 0.02 0.01 0.01 0.01 0.01 0.03 0.02 0.02 0.06 0.06 0.07 0.20 0.20 0.12 0.05 0.31 0.07 0.10 0.26 0.18 0.04 0.18 0.15 0.16 0.11 0.13 0.32 0.26 0.36 0.32 0.12 0.07 0.15 0.13 0.13 0.17 0.14 0.16 0.17 0.18 0.14 0.22 0.42 0.22 0.10 0.20 0.34 0.21 0.20 0.12
0.00 0.00 0.00 0.00 0.00 0.00 0.00 0.00 0.00 0.00 0.00 0.00 0.01 0.00 0.00 0.00 0.00 0.00 0.00 0.00 0.00 0.00 0.00 0.00 0.00 0.00 0.00 0.00 0.00 0.00 0.00 0.00 0.00 0.00 0.01 0.00 0.00 0.01 0.02 0.00 0.05 0.00 0.00 0.01 0.01 0.01 0.01 0.02 0.02 0.02 0.01 0.01 0.02 0.06 0.04 0.07 0.15 0.34 0.35 0.35 0.58 1.03 0.80 0.34 0.08 0.12 0.03 0.14 0.55 0.44 0.17 0.13 0.13 0.12 0.10 0.22 0.27 0.24 0.15 0.18 0.13 0.14 0.27 0.14 0.17 0.24 0.24 0.24 0.50 0.53 0.14 0.37 0.22 0.34 0.28 0.15 0.14
0.00 0.00 0.00 0.00 0.00 0.00 0.00 0.00 0.00 0.00 0.00 0.00 0.00 0.00 0.00 0.00 0.00 0.00 0.00 0.00 0.00 0.00 0.00 0.00 0.00 0.00 0.00 0.00 0.00 0.00 0.00 0.00 0.00 0.00 0.01 0.02 0.01 0.01 0.00 0.00 0.00 0.01 0.00 0.00 0.01 0.01 0.03 0.04 0.05 0.03 0.02 0.02 0.02 0.07 0.11 0.10 0.18 0.19 0.18 0.29 1.29 0.83 0.62 0.96 0.12 0.10 0.05 0.13 0.23 0.32 0.08 0.05 0.09 0.09 0.08 0.03 0.05 0.06 0.08 0.08 0.10 0.17 0.17 0.16 0.25 0.35 0.59 0.29 0.26 0.34 0.22 0.24 0.23 0.38 0.20 0.16 0.09
0.00 0.00 0.00 0.00 0.00 0.00 0.00 0.00 0.00 0.00 0.00 0.00 0.00 0.00 0.01 0.00 0.00 0.00 0.00 0.00 0.00 0.00 0.00 0.00 0.00 0.00 0.00 0.00 0.00 0.00 0.00 0.00 0.00 0.00 0.01 0.01 0.00 0.00 0.00 0.00 0.00 0.00 0.01 0.00 0.01 0.02 0.03 0.06 0.03 0.02 0.04 0.11 0.08 0.06 0.13 0.16 0.18 0.17 0.11 0.17 0.14 0.24 0.31 0.32 0.08 0.01 0.04 0.14 0.08 0.03 0.20 0.02 0.04 0.02 0.05 0.05 0.08 0.07 0.08 0.07 0.10 0.06 0.11 0.43 0.79 0.43 0.18 0.21 0.17 0.13 0.12 0.23 0.25 0.23 0.11 0.20 0.23
0.00 0.00 0.00 0.00 0.00 0.00 0.00 0.00 0.00 0.00 0.00 0.00 0.00 0.00 0.01 0.00 0.00 0.00 0.00 0.00 0.00 0.00 0.00 0.00 0.00 0.00 0.00 0.00 0.00 0.00 0.00 0.00 0.00 0.00 0.00 0.00 0.00 0.01 0.00 0.00 0.00 0.00 0.01 0.02 0.06 0.03 0.06 0.04 0.04 0.03 0.02 0.03 0.15 0.13 0.09 0.05 0.09 0.06 0.03 0.02 0.03 0.02 0.02 0.01 0.00 0.00 0.00 0.00 0.05 0.01 0.02 0.02 0.03 0.03 0.01 0.01 0.14 0.15 0.24 0.10 0.15 0.17 0.20 0.58 0.85 0.17 0.19 0.21 0.23 0.26 0.33 0.35 0.15 0.19 0.13 0.11 0.15
0.00 0.00 0.00 0.00 0.00 0.00 0.00 0.00 0.00 0.00 0.00 0.00 0.00 0.00 0.03 0.03 0.02 0.00 0.00 0.00 0.00 0.00 0.00 0.00 0.00 0.00 0.00 0.00 0.00 0.00 0.00 0.00 0.00 0.00 0.01 0.00 0.00 0.00 0.00 0.00 0.00 0.00 0.02 0.03 0.09 0.07 0.02 0.01 0.01 0.02 0.02 0.02 0.01 0.01 0.01 0.02 0.04 0.02 0.02 0.02 0.01 0.01 0.01 0.03 0.04 0.03 0.00 0.00 0.01 0.06 0.08 0.01 0.16 0.18 0.05 0.03 0.12 0.12 0.07 0.13 0.13 0.24 0.32 0.63 0.51 0.40 0.36 0.18 0.22 0.21 0.24 0.29 0.43 0.10 0.11 0.13 0.35
0.00 0.00 0.00 0.00 0.00 0.00 0.00 0.00 0.00 0.00 0.00 0.00 0.00 0.02 0.02 0.07 0.02 0.00 0.00 0.00 0.00 0.00 0.00 0.00 0.00 0.00 0.00 0.00 0.00 0.00 0.00 0.00 0.00 0.00 0.00 0.00 0.00 0.00 0.00 0.00 0.00 0.00 0.00 0.00 0.00 0.00 0.00 0.00 0.00 0.00 0.00 0.00 0.00 0.00 0.00 0.00 0.00 0.00 0.00 0.01 0.01 0.00 0.00 0.00 0.00 0.01 0.01 0.00 0.00 0.01 0.04 0.68 0.43 0.27 0.39 0.13 0.10 0.08 0.15 0.35 0.68 0.42 0.31 0.06 0.12 0.33 0.34 0.43 0.15 0.14 0.17 0.12 0.16 0.37 0.28 0.58 0.92
0.00 0.00 0.00 0.00 0.00 0.00 0.00 0.00 0.00 0.00 0.00 0.00 0.00 0.02 0.05 0.10 0.15 0.02 0.02 0.00 0.00 0.00 0.00 0.00 0.00 0.00 0.00 0.00 0.00 0.00 0.00 0.00 0.00 0.00 0.00 0.00 0.00 0.00 0.00 0.00 0.00 0.00 0.00 0.00 0.00 0.00 0.00 0.00 0.00 0.00 0.00 0.00 0.00 0.00 0.00 0.00 0.00 0.00 0.00 0.00 0.00 0.00 0.00 0.00 0.00 0.00 0.01 0.02 0.08 0.13 0.15 0.29 0.58 0.39 0.33 0.02 0.04 0.04 0.11 0.23 0.17 0.13 0.12 0.31 0.46 0.48 0.34 0.26 0.19 0.28 0.33 0.82 0.71 0.37 0.96 1.34 0.55
0.00 0.00 0.00 0.00 0.00 0.00 0.00 0.00 0.00 0.00 0.00 0.00 0.00 0.00 0.02 0.03 0.02 0.02 0.01 0.02 0.01 0.00 0.00 0.00 0.00 0.00 0.00 0.00 0.00 0.00 0.00 0.00 0.00 0.00 0.00 0.00 0.00 0.00 0.00 0.00 0.00 0.00 0.00 0.00 0.00 0.00 0.00 0.00 0.00 0.00 0.00 0.00 0.00 0.00 0.00 0.00 0.00 0.00 0.00 0.00 0.00 0.00 0.00 0.00 0.00 0.00 0.00 0.02 0.01 0.02 0.06 0.21 0.27 0.06 0.02 0.01 0.02 0.03 0.05 0.10 0.19 0.23 0.40 0.12 0.40 0.19 0.16 0.12 0.19 0.72 0.70 1.36 0.44 0.96 1.78 1.83 0.14
0.00 0.00 0.00 0.00 0.00 0.00 0.00 0.00 0.00 0.01 0.00 0.01 0.00 0.00 0.01 0.00 0.01 0.00 0.00 0.02 0.00 0.00 0.00 0.00 0.00 0.00 0.00 0.00 0.00 0.00 0.00 0.00 0.00 0.00 0.00 0.00 0.00 0.00 0.00 0.00 0.00 0.00 0.00 0.00 0.00 0.00 0.00 0.00 0.00 0.00 0.00 0.00 0.00 0.00 0.00 0.00 0.00 0.00 0.05 0.03 0.03 0.01 0.00 0.02 0.00 0.01 0.01 0.04 0.02 0.01 0.01 0.00 0.00 0.04 0.07 0.08 0.01 0.02 0.03 0.06 0.08 0.07 0.11 0.09 0.40 0.26 0.14 0.12 0.68 0.81 0.67 0.36 0.97 1.84 0.55 0.17 0.15
0.00 0.00 0.00 0.00 0.00 0.00 0.00 0.00 0.00 0.00 0.00 0.01 0.00 0.00 0.04 0.00 0.01 0.00 0.00 0.00 0.00 0.01 0.00 0.00 0.00 0.00 0.00 0.00 0.00 0.00 0.00 0.00 0.00 0.00 0.00 0.00 0.00 0.00 0.00 0.00 0.00 0.00 0.00 0.00 0.00 0.00 0.00 0.00 0.00 0.00 0.00 0.00 0.00 0.00 0.00 0.00 0.00 0.00 0.00 0.00 0.00 0.02 0.05 0.02 0.03 0.05 0.06 0.01 0.01 0.00 0.00 0.00 0.01 0.01 0.02 0.04 0.03 0.03 0.05 0.06 0.06 0.06 0.15 0.31 0.34 0.23 0.15 0.42 1.15 0.32 0.12 0.22 0.57 0.84 0.63 0.62 0.20
0.00 0.00 0.00 0.00 0.00 0.00 0.00 0.00 0.00 0.00 0.01 0.00 0.00 0.00 0.00 0.00 0.00 0.00 0.00 0.00 0.00 0.00 0.00 0.00 0.00 0.00 0.00 0.00 0.00 0.00 0.00 0.00 0.00 0.00 0.00 0.00 0.00 0.00 0.00 0.00 0.00 0.00 0.00 0.00 0.00 0.00 0.00 0.00 0.00 0.00 0.00 0.00 0.00 0.00 0.00 0.00 0.00 0.00 0.00 0.00 0.00 0.00 0.00 0.01 0.03 0.01 0.00 0.02 0.00 0.00 0.00 0.00 0.01 0.01 0.01 0.01 0.02 0.02 0.02 0.01 0.06 0.18 0.34 0.23 0.35 0.35 0.27 0.19 0.11 0.19 0.15 0.45 0.72 0.38 0.47 0.31 0.27
0.00 0.00 0.00 0.00 0.00 0.00 0.00 0.00 0.00 0.00 0.00 0.00 0.00 0.00 0.00 0.00 0.00 0.00 0.00 0.00 0.00 0.00 0.00 0.00 0.01 0.00 0.00 0.00 0.00 0.00 0.00 0.01 0.00 0.00 0.00 0.00 0.00 0.00 0.00 0.00 0.00 0.00 0.00 0.00 0.00 0.00 0.00 0.00 0.00 0.00 0.00 0.00 0.00 0.00 0.00 0.00 0.00 0.00 0.00 0.00 0.00 0.00 0.00 0.00 0.00 0.00 0.00 0.00 0.00 0.00 0.00 0.00 0.00 0.00 0.01 0.01 0.02 0.02 0.03 0.02 0.06 0.21 0.06 0.07 0.09 0.16 0.26 0.28 0.20 0.18 0.16 0.18 0.64 0.16 0.82 0.50 0.34
0.00 0.00 0.00 0.00 0.00 0.00 0.00 0.00 0.00 0.00 0.00 0.00 0.00 0.00 0.00 0.00 0.00 0.00 0.00 0.00 0.00 0.00 0.00 0.00 0.00 0.00 0.00 0.00 0.00 0.00 0.00 0.00 0.00 0.00 0.00 0.00 0.00 0.00 0.00 0.00 0.00 0.00 0.00 0.00 0.00 0.00 0.00 0.00 0.00 0.00 0.00 0.00 0.00 0.00 0.00 0.00 0.00 0.00 0.00 0.00 0.00 0.00 0.00 0.00 0.00 0.00 0.00 0.00 0.00 0.00 0.00 0.00 0.00 0.02 0.02 0.01 0.01 0.01 0.03 0.02 0.02 0.06 0.04 0.05 0.04 0.02 0.02 0.04 0.21 0.15 0.15 0.09 0.19 0.19 0.46 0.25 0.20
0.00 0.00 0.00 0.00 0.00 0.00 0.00 0.00 0.00 0.00 0.00 0.00 0.00 0.00 0.00 0.00 0.00 0.00 0.00 0.00 0.00 0.00 0.00 0.00 0.00 0.00 0.00 0.00 0.00 0.00 0.00 0.00 0.00 0.00 0.00 0.00 0.00 0.00 0.00 0.00 0.00 0.00 0.00 0.00 0.00 0.00 0.00 0.00 0.00 0.00 0.00 0.00 0.00 0.00 0.00 0.00 0.00 0.00 0.00 0.00 0.00 0.00 0.00 0.00 0.00 0.00 0.00 0.00 0.00 0.00 0.00 0.00 0.00 0.00 0.00 0.00 0.00 0.01 0.01 0.02 0.02 0.03 0.02 0.03 0.03 0.04 0.03 0.06 0.08 0.09 0.11 0.18 0.17 0.34 0.46 0.38 0.46
0.00 0.00 0.00 0.00 0.00 0.00 0.00 0.00 0.00 0.00 0.00 0.00 0.00 0.00 0.00 0.00 0.00 0.00 0.00 0.00 0.00 0.00 0.00 0.00 0.00 0.00 0.00 0.00 0.00 0.00 0.00 0.00 0.00 0.00 0.00 0.00 0.00 0.00 0.00 0.00 0.00 0.00 0.00 0.00 0.00 0.00 0.00 0.00 0.00 0.00 0.00 0.00 0.00 0.00 0.00 0.00 0.00 0.00 0.00 0.00 0.00 0.00 0.00 0.00 0.00 0.00 0.00 0.00 0.00 0.00 0.00 0.00 0.00 0.00 0.00 0.01 0.01 0.01 0.02 0.01 0.01 0.02 0.03 0.03 0.03 0.06 0.09 0.06 0.14 0.07 0.08 0.13 0.13 0.29 0.46 0.36 0.28
0.00 0.00 0.00 0.00 0.00 0.00 0.00 0.00 0.00 0.00 0.00 0.00 0.01 0.00 0.00 0.00 0.00 0.00 0.00 0.00 0.00 0.00 0.00 0.00 0.00 0.00 0.00 0.00 0.01 0.00 0.00 0.00 0.00 0.00 0.00 0.00 0.00 0.00 0.02 0.00 0.00 0.00 0.00 0.00 0.00 0.00 0.00 0.00 0.00 0.00 0.00 0.00 0.00 0.00 0.00 0.00 0.00 0.00 0.00 0.00 0.00 0.00 0.00 0.00 0.00 0.00 0.00 0.00 0.00 0.01 0.01 0.01 0.00 0.00 0.00 0.00 0.00 0.01 0.02 0.02 0.00 0.01 0.02 0.02 0.03 0.05 0.09 0.07 0.02 0.02 0.04 0.03 0.03 0.04 0.09 0.14 0.25
0.00 0.00 0.00 0.00 0.00 0.00 0.00 0.00 0.00 0.00 0.00 0.00 0.00 0.00 0.00 0.00 0.00 0.00 0.00 0.00 0.00 0.00 0.00 0.00 0.00 0.00 0.00 0.00 0.01 0.02 0.00 0.00 0.00 0.00 0.00 0.00 0.01 0.02 0.02 0.02 0.00 0.00 0.00 0.00 0.00 0.00 0.00 0.00 0.00 0.00 0.00 0.00 0.00 0.00 0.00 0.00 0.00 0.00 0.00 0.00 0.00 0.00 0.00 0.00 0.00 0.00 0.00 0.00 0.00 0.00 0.00 0.00 0.00 0.01 0.01 0.00 0.00 0.01 0.01 0.02 0.02 0.01 0.01 0.01 0.02 0.01 0.03 0.03 0.06 0.06 0.09 0.03 0.03 0.03 0.06 0.08 0.08
0.00 0.00 0.00 0.00 0.00 0.00 0.00 0.00 0.00 0.00 0.00 0.00 0.00 0.00 0.00 0.00 0.00 0.00 0.00 0.00 0.00 0.00 0.00 0.00 0.00 0.00 0.00 0.00 0.00 0.00 0.00 0.00 0.00 0.00 0.00 0.00 0.01 0.02 0.00 0.05 0.01 0.00 0.00 0.00 0.00 0.00 0.00 0.00 0.00 0.00 0.00 0.00 0.00 0.00 0.00 0.00 0.00 0.00 0.00 0.00 0.00 0.00 0.00 0.00 0.00 0.00 0.00 0.00 0.00 0.00 0.01 0.01 0.01 0.01 0.00 0.01 0.00 0.01 0.01 0.01 0.01 0.02 0.03 0.02 0.02 0.02 0.02 0.03 0.04 0.03 0.04 0.02 0.03 0.03 0.08 0.05 0.11
0.00 0.00 0.00 0.00 0.00 0.00 0.00 0.00 0.00 0.00 0.00 0.00 0.00 0.00 0.00 0.00 0.01 0.00 0.00 0.00 0.00 0.00 0.00 0.00 0.00 0.00 0.00 0.00 0.00 0.00 0.00 0.02 0.01 0.01 0.00 0.00 0.00 0.01 0.02 0.01 0.00 0.00 0.00 0.00 0.00 0.00 0.00 0.00 0.00 0.00 0.00 0.00 0.00 0.00 0.00 0.00 0.00 0.00 0.00 0.00 0.00 0.00 0.00 0.00 0.00 0.00 0.00 0.00 0.00 0.00 0.00 0.00 0.00 0.00 0.01 0.01 0.02 0.01 0.01 0.01 0.01 0.02 0.02 0.01 0.01 0.01 0.01 0.01 0.02 0.03 0.03 0.03 0.04 0.03 0.03 0.05 0.06
0.00 0.00 0.00 0.00 0.00 0.00 0.00 0.00 0.00 0.00 0.00 0.00 0.00 0.00 0.00 0.00 0.00 0.00 0.00 0.00 0.00 0.00 0.00 0.00 0.00 0.00 0.00 0.00 0.00 0.00 0.00 0.00 0.00 0.01 0.01 0.00 0.01 0.02 0.05 0.05 0.02 0.02 0.00 0.00 0.00 0.00 0.00 0.00 0.00 0.00 0.00 0.00 0.00 0.00 0.00 0.00 0.00 0.00 0.00 0.00 0.00 0.00 0.00 0.00 0.00 0.00 0.00 0.00 0.00 0.00 0.00 0.00 0.00 0.01 0.01 0.00 0.01 0.00 0.01 0.01 0.01 0.02 0.01 0.01 0.00 0.01 0.01 0.01 0.02 0.03 0.03 0.04 0.03 0.05 0.05 0.05 0.08
0.00 0.00 0.00 0.00 0.00 0.00 0.00 0.00 0.00 0.00 0.00 0.00 0.00 0.00 0.00 0.00 0.00 0.00 0.00 0.00 0.00 0.00 0.00 0.00 0.00 0.00 0.00 0.00 0.00 0.00 0.00 0.00 0.00 0.00 0.00 0.00 0.01 0.03 0.01 0.02 0.01 0.02 0.00 0.00 0.00 0.00 0.00 0.00 0.00 0.00 0.00 0.00 0.00 0.00 0.00 0.00 0.00 0.00 0.00 0.00 0.00 0.00 0.00 0.00 0.00 0.00 0.00 0.00 0.00 0.00 0.00 0.00 0.00 0.00 0.00 0.01 0.00 0.01 0.01 0.00 0.01 0.01 0.01 0.01 0.02 0.01 0.03 0.03 0.04 0.03 0.03 0.04 0.03 0.03 0.04 0.06 0.07
0.00 0.00 0.00 0.00 0.00 0.00 0.00 0.00 0.00 0.00 0.00 0.00 0.00 0.00 0.00 0.00 0.00 0.00 0.00 0.00 0.00 0.00 0.00 0.00 0.00 0.00 0.00 0.00 0.00 0.00 0.00 0.00 0.00 0.03 0.02 0.03 0.00 0.02 0.00 0.03 0.01 0.02 0.03 0.00 0.01 0.00 0.00 0.00 0.00 0.00 0.00 0.00 0.00 0.01 0.01 0.02 0.00 0.00 0.00 0.00 0.00 0.00 0.00 0.00 0.00 0.00 0.00 0.00 0.00 0.00 0.00 0.00 0.00 0.00 0.00 0.00 0.00 0.00 0.00 0.01 0.01 0.01 0.01 0.01 0.02 0.02 0.02 0.03 0.04 0.04 0.03 0.04 0.03 0.03 0.05 0.08 0.04